Flag for Belarus Weather past 2 weeks in Minsk, Belarus

Now
70 °F

Partly sunny.


Feels Like: 70 °F
Forecast: 46 / 67 °F
Wind: 6 mph from South

Location: Loshitsa / Minsk International 1

Current Time: Aug 20, 2014 at 8:39:55 PM

Latest Report: Aug 20, 2014 at 8:00 PM


Visibility: N/A

Pressure: 29.89 "Hg

Humidity: 64%

Dew point: 57 °F

Location of MinskLocation

Historic Weather in Minsk — Graph

°F

Minsk temperature yesterday

Maximum temperature yesterday: 73 °F (at 3:00 PM)
Minimum temperature yesterday: 59 °F (at 7:00 AM)
Average temperature yesterday: 68 °F

Past Weeks' High & Low Weather Summary

 TemperatureHumidityPressure
High86 °F (Aug 8, 4:00 PM)100% (Aug 12, 8:00 AM)29.98 "Hg (Aug 12, 8:00 AM)
Low52 °F (Aug 18, 7:00 AM)35% (Aug 8, 4:00 PM)29.65 "Hg (Aug 14, 9:30 AM)
Average71 °F65%29.87 "Hg
* Reported Aug 5 7:00 PM — Aug 20 7:30 PM, Minsk, Weather by CustomWeather, © 2014

Note: Actual official high and low records may vary slightly from our data, if they occured in-between our weather recording intervals... More about our weather records

Advertising

Minsk weather history for previous 24 hours

 ConditionsComfort  
Time TempWeatherWind HumidityBarometerVisibility
7:30 PM
Aug 20
72 °FPartly sunny.6 mph61%29.89 "HgN/A
7:00 PM72 °FPartly sunny.6 mph61%29.86 "HgN/A
6:30 PM72 °FBroken clouds.6 mph57%29.86 "HgN/A
6:00 PM72 °FBroken clouds.6 mph57%29.89 "HgN/A
5:30 PM72 °FBroken clouds.8 mph57%29.89 "HgN/A
5:00 PM72 °FBroken clouds.8 mph57%29.89 "HgN/A
4:30 PM72 °FBroken clouds.8 mph53%29.89 "HgN/A
4:00 PM72 °FBroken clouds.6 mph53%29.89 "HgN/A
3:30 PM70 °FPartly sunny.6 mph60%29.89 "HgN/A
3:00 PM70 °FPartly sunny.6 mph60%29.89 "HgN/A
2:30 PM70 °FMostly cloudy.6 mph57%29.89 "HgN/A
2:00 PM70 °FMostly cloudy.8 mph57%29.92 "HgN/A
1:30 PM73 °FMostly cloudy.8 mph57%29.92 "HgN/A
1:00 PM73 °FPartly sunny.6 mph57%29.89 "HgN/A
12:30 PM72 °FBroken clouds.3 mph61%29.89 "HgN/A
12:00 PM72 °FPartly sunny.3 mph61%29.89 "HgN/A
11:30 AM66 °FPartly sunny.No wind73%29.92 "HgN/A
11:00 AM66 °FPartly sunny.3 mph73%29.92 "HgN/A
10:30 AM66 °FBroken clouds.1 mph73%29.92 "HgN/A
10:00 AM66 °FPartly sunny.1 mph73%29.92 "HgN/A
9:30 AM61 °FPartly sunny.3 mph88%29.92 "HgN/A
9:00 AM61 °FPartly sunny.No wind88%29.92 "HgN/A
8:30 AM59 °FPartly sunny.1 mph94%29.92 "HgN/A
8:00 AM59 °FPartly sunny.1 mph94%29.92 "HgN/A
7:30 AM59 °FPartly sunny.6 mph94%29.92 "HgN/A
7:00 AM59 °FPartly sunny.3 mph94%29.92 "HgN/A
8:30 PM
Aug 19
68 °FPartly sunny.6 mph60%29.89 "HgN/A
8:00 PM68 °FPartly sunny.6 mph60%29.89 "HgN/A
Weather by CustomWeather, © 2014

See weather overviewHow to use our weather pages